Simultaneous Nadir Overpasses (SNOs) Predictions

Prediction of SNOs between GOES-17 and NPP Satellite Orbit:

Table of predicted SNOs for the next 14.0 days since TLE Epoch: 6/24/2023
Index Date Time (GOES-17) GOES-17 Lat,Lon NPP Lat,Lon Distance(km) Time Diff (sec)
1 06/24/2023 20:12:24 0.01,-104.72 0.78,-101.18 402.10 80
2 06/26/2023 08:34:13 -0.01,-104.73 0.36,-106.47 197.51 80
3 06/27/2023 08:12:49 -0.01,-104.73 -0.63,-101.94 318.58 80
4 06/28/2023 20:34:46 0.01,-104.72 -0.54,-107.25 287.82 80
5 06/29/2023 20:18:42 0.01,-104.72 0.46,-102.72 228.39 80
6 07/01/2023 08:40:30 -0.01,-104.74 0.73,-108.00 371.18 80
7 07/02/2023 08:19:06 -0.01,-104.74 -0.27,-103.47 144.41 80
8 07/03/2023 20:41:03 0.01,-104.71 -0.89,-108.78 463.42 80
9 07/04/2023 20:24:58 0.01,-104.71 0.12,-104.25 52.32 80
10 07/07/2023 08:28:02 -0.01,-104.73 0.06,-105.00 31.37 80
